Orbital Elements at Epoch 2459200.5 (2020-Dec-17.0) TDB
Reference: JPL 24 (heliocentric ecliptic J2000)
Element | Value | Uncertainty (1-sigma) | Units |
e | .2101011255161983 | 2.7083e-08 | |
a | 2.480776726495696 | 9.3759e-09 | au |
q | 1.95956274410456 | 6.5303e-08 | au |
i | 2.089769838750351 | 5.8002e-06 | deg |
node | 128.4361367801781 | 9.0651e-05 | deg |
peri | 303.7699408256482 | 9.2526e-05 | deg |
M | 142.6892863049597 | 1.9533e-05 | deg |
tp | 2458634.822623351654 (2019-May-31.32262335) | 7.5368e-05 | TDB |
period | 1427.183924363957 3.91 | 8.0909e-06 2.215e-08 | d yr |
n | .252244993693044 | 1.43e-09 | deg/d |
Q | 3.001990708886831 | 1.1346e-08 | au |
|
| | Orbit Determination Parameters
Additional Information
|